Theta_e
338 346 348 350 347 346 347 350 352 354 357 357 354 352 350 351 348 352 350 351 347 347 348 349 350 350 351 352 353 349 348 352 351
340 344 348 350 351 347 349 349 351 352 358 358 356 353 353 352 351 350 351 351 350 348 350 350 346 347 349 350 352 350 353 351 352
341 345 348 349 349 349 348 349 351 352 358 358 357 353 353 353 352 351 352 350 351 352 346 351 349 343 347 347 348 351 351 351 351
343 345 347 349 350 349 349 348 351 352 358 358 358 356 354 354 354 354 351 353 352 351 349 354 349 348 343 333 343 351 350 349 351
345 347 346 348 351 352 350 350 351 352 355 357 358 357 355 355 354 354 355 355 354 353 351 351 352 351 350 341 346 351 351 350 348
348 345 348 348 350 355 354 352 353 353 354 355 356 357 355 356 355 352 354 354 356 356 354 353 350 350 352 351 352 352 350 351 350
351 351 354 351 354 356 353 352 353 355 355 354 354 355 354 354 353 352 351 351 357 356 356 356 355 353 353 353 353 352 352 352 352
352 352 353 354 355 359 356 355 353 355 355 355 355 356 354 352 352 354 353 356 356 356 355 355 357 354 354 354 354 354 354 353 352
351 354 354 355 356 360 360 356 358 358 356 353 355 355 356 350 355 355 352 355 354 355 354 354 354 356 356 355 355 354 353 352 351
353 354 353 355 357 357 357 356 357 360 359 358 358 359 358 358 357 356 356 356 356 356 356 355 355 356 356 356 355 355 352 352 352
352 353 353 356 355 357 356 356 357 358 359 360 361 361 361 360 360 359 358 357 357 356 356 356 355 355 356 355 355 355 353 352 351
344 349 350 354 353 355 356 357 357 359 361 362 362 361 360 359 358 357 357 356 356 355 355 354 354 353 353 353 353 352 351 350 350
339 340 343 350 352 355 357 358 359 360 361 361 360 359 356 356 354 353 352 352 353 353 352 354 353 353 353 352 351 351 348 346 346
332 336 342 349 352 356 359 359 360 362 361 359 357 355 353 350 350 350 350 349 349 351 349 349 347 348 346 345 345 345 345 344 345
334 336 348 354 357 360 360 360 359 357 356 355 354 353 351 349 349 349 349 350 350 351 352 351 349 347 346 345 341 339 336 336 336
347 344 353 356 360 361 358 355 354 355 357 354 352 352 350 348 349 347 347 347 349 349 347 344 346 346 344 342 340 337 336 336 337
342 339 335 356 360 360 357 354 354 356 353 352 352 351 350 350 348 346 345 345 344 343 345 345 343 342 341 340 341 338 337 336 335
349 354 350 355 359 358 355 353 355 353 352 352 352 351 350 349 346 346 345 339 343 341 340 340 341 339 340 340 341 340 338 337 338
351 356 355 355 359 356 353 353 353 352 352 352 350 348 348 347 345 345 343 338 334 334 335 335 336 336 337 335 336 336 333 333 334
350 349 353 355 359 354 352 352 353 352 351 352 349 349 346 342 341 343 341 339 337 334 331 331 331 331 331 333 333 331 331 332 332
Wind_Speed
8 16 18 22 20 23 25 29 33 31 31 28 29 29 28 24 27 19 18 15 17 19 14 12 3 18 19 17 15 13 14 14 14
8 11 16 19 24 29 29 30 31 30 33 29 29 29 27 27 25 24 19 19 21 16 13 10 12 6 16 15 16 13 12 15 15
12 12 12 18 17 23 30 31 32 32 33 31 30 28 28 26 25 25 23 22 19 20 18 17 15 19 23 15 18 18 16 17 18
13 11 11 13 16 25 28 30 32 31 32 31 29 29 28 26 26 26 27 21 21 21 20 12 20 24 22 18 26 23 20 20 19
8 10 9 9 16 21 23 26 30 30 30 31 30 30 27 28 26 25 25 25 23 22 21 20 17 16 19 22 25 26 23 22 24
6 6 8 8 15 15 18 21 27 28 30 28 29 26 28 25 24 29 26 24 25 24 23 22 23 21 22 23 26 24 23 24 24
11 8 9 9 11 16 21 21 21 25 26 28 27 28 28 27 28 29 28 28 26 27 23 24 23 24 23 24 24 25 25 25 25
13 10 12 11 11 14 20 22 23 24 26 27 29 28 30 29 31 28 26 24 22 24 22 23 23 21 21 22 22 23 25 26 26
9 13 13 14 14 14 16 24 24 24 25 27 25 26 24 30 21 24 27 23 24 23 23 22 23 22 23 22 22 24 26 30 28
20 17 15 17 17 16 21 24 25 23 24 22 21 20 20 19 19 20 20 21 21 21 20 19 21 20 21 23 24 25 26 25 24
14 21 17 15 14 20 24 24 24 22 21 20 18 16 15 16 15 17 19 18 19 18 18 18 19 20 20 20 22 22 25 25 24
15 21 9 15 22 24 26 25 24 21 21 20 17 16 15 15 13 13 13 14 14 16 15 15 17 16 16 16 18 16 11 11 7
16 29 46 19 24 27 25 25 26 23 19 18 18 17 17 16 14 14 14 13 11 10 11 8 7 5 3 2 2 4 6 8 6
10 12 34 27 26 25 24 27 26 23 21 18 16 15 16 13 13 12 10 9 9 8 7 7 4 4 2 2 3 3 4 7 10
12 35 25 27 22 22 24 25 25 21 20 20 20 19 18 16 15 13 11 10 8 9 8 8 8 6 4 6 3 2 4 4 5
8 22 6 30 24 22 22 22 24 23 21 26 24 22 20 18 16 15 13 13 10 8 8 7 6 5 9 7 3 0 2 3 4
5 5 21 21 29 22 21 23 22 22 27 25 23 20 18 17 16 14 13 11 11 9 7 9 8 7 7 8 9 4 2 1 2
11 12 12 10 21 22 22 23 21 24 24 24 21 20 19 19 18 18 13 7 11 10 10 8 9 8 6 8 11 10 8 6 4
8 9 11 2 20 23 23 21 21 22 21 21 20 17 18 17 17 14 13 11 10 10 6 6 6 7 7 5 5 8 6 7 8
6 11 9 10 19 26 26 23 22 21 19 15 17 15 16 15 14 16 15 15 14 9 7 5 4 5 6 7 4 6 6 6 6
Wind_Direction
203 183 188 174 182 200 181 164 164 168 173 183 188 189 199 202 207 219 223 227 215 204 220 233 79 218 216 228 245 260 236 226 232
173 186 190 182 180 189 176 168 169 171 174 183 189 193 198 203 206 212 219 222 218 225 229 261 233 244 243 242 232 244 223 229 232
174 178 196 179 183 179 173 174 172 175 175 182 190 194 200 204 207 212 219 226 226 219 228 230 216 209 220 245 258 239 233 235 243
160 173 189 188 179 182 177 176 170 178 175 183 190 196 197 204 205 210 221 228 226 232 231 190 187 197 218 243 241 239 232 238 250
123 162 183 207 172 170 167 167 170 179 179 184 194 198 196 200 206 215 214 219 226 227 230 226 210 203 207 221 222 232 223 229 238
129 171 171 196 165 153 160 168 172 180 181 184 196 199 197 201 206 217 226 226 217 224 223 227 230 224 220 223 222 229 228 232 236
164 185 161 181 167 157 163 167 171 176 179 188 199 199 198 200 211 216 222 229 222 216 222 226 224 223 227 227 231 233 236 236 236
165 182 167 177 162 158 167 170 179 185 187 193 199 202 201 207 207 211 222 229 222 216 225 232 236 235 232 231 233 234 237 239 239
172 180 179 167 166 157 167 174 180 180 187 197 203 206 202 214 220 215 224 233 235 235 228 232 233 235 237 236 234 237 240 244 243
182 174 181 172 170 169 175 179 180 178 183 188 201 206 210 213 214 218 224 228 229 233 236 234 233 233 236 241 246 247 251 257 251
183 163 174 172 171 168 175 181 186 186 187 190 198 203 204 209 212 216 221 221 227 232 235 238 242 243 243 248 254 256 260 262 262
72 344 259 167 173 169 169 176 178 179 176 179 185 190 198 206 201 196 209 219 228 235 238 245 247 255 260 262 262 271 259 272 264
110 204 259 170 164 157 163 164 162 161 165 171 184 174 188 198 205 213 219 225 222 229 238 246 250 247 231 257 254 254 247 259 262
309 259 259 172 165 155 156 156 158 163 166 172 171 159 168 181 183 184 186 192 200 199 207 208 217 212 228 208 218 240 263 266 266
210 266 220 158 149 150 155 156 156 161 163 164 154 151 152 159 160 160 161 160 159 171 163 158 143 141 142 132 102 17 340 318 276
337 312 259 137 144 148 155 163 164 159 160 152 154 157 152 159 162 152 155 157 155 159 157 152 154 154 147 154 151 95 22 61 62
208 267 316 155 139 155 161 166 169 160 150 156 156 154 159 159 148 146 161 163 166 175 174 163 140 154 169 164 164 176 146 148 107
319 294 283 108 137 159 162 165 161 148 153 158 158 162 165 166 160 169 159 125 134 138 153 153 151 126 144 166 187 177 181 192 210
297 295 327 200 152 158 156 156 153 151 161 169 161 167 174 182 164 176 172 146 126 127 128 170 161 155 145 180 175 192 230 218 218
326 313 330 283 184 155 151 151 150 155 166 175 171 189 182 189 180 180 176 171 161 160 155 166 185 201 199 200 200 220 213 196 185